[[{"header":{"parameterUnit":"m.s-1","parameterCategory":1,"la1":30.2991,"la2":30.254,"lo1":-89.0895,"lo2":-89.0444,"dy":0.0017,"dx":0.0017,"nx":28,"ny":28,"refTime":"2024-05-31T21:00:00:Z","depth":0,"parameterNumber":2,"parameterNumberName":"U-component_of_WINDS"},"data":[0,0,0,0,0,0,0,0,0,0,0,0,0,0,0,0,0,0,0,0,0,0,0,0,0,0,0,0,0,0,0,0,0,0,0,0,0,0,0,0,0,0,0,0,0,0,0,0,0,0,0,0,0,0,0,0,0,0,-1.4706,-1.4707,0,-1.4841,-1.4842,-1.4844,-1.4924,-1.4924,-1.4925,-1.4925,-1.5065,-1.5068,-1.5071,0,0,0,0,0,0,0,0,0,0,0,0,0,-1.452,-1.4523,-1.4706,-1.4707,-1.4709,-1.484,-1.4842,-1.4844,-1.4924,-1.4924,-1.4925,-1.4925,-1.5064,-1.5068,-1.5072,0,0,0,0,0,0,0,0,0,0,0,0,0,-1.4622,-1.4524,-1.4705,-1.4765,-1.4771,-1.484,-1.4842,-1.4845,-1.4924,-1.4924,-1.4925,-1.4925,-1.5062,-1.5067,-1.5072,-1.5093,0,0,-1.5088,-1.509,0,0,0,0,0,0,0,0,-1.4616,-1.4629,-1.4754,-1.4761,-1.4768,-1.4866,-1.4828,-1.4928,-1.4924,-1.4866,-1.4925,-1.4926,-1.4998,-1.5009,-1.5033,-1.51,-1.5106,-1.5088,-1.5091,-1.5094,-1.5095,0,0,0,0,0,0,0,-1.4609,-1.4624,-1.4759,-1.4756,-1.4765,-1.4785,-1.48,-1.4847,-1.4928,-1.4871,-1.4877,-1.4892,-1.5002,-1.5028,-1.5037,-1.5108,-1.5088,-1.5093,-1.5096,-1.5098,-1.5199,-1.5198,0,0,0,0,0,0,-1.4592,-1.4617,-1.4755,-1.4763,-1.4692,-1.4788,-1.4805,-1.4834,-1.4927,-1.4942,-1.4891,-1.4895,-1.5019,-1.5031,-1.5042,-1.5073,-1.5094,-1.5098,-1.5101,-1.5199,-1.5199,-1.5198,0,0,0,0,0,0,-1.4588,-1.4604,-1.475,-1.4692,-1.4712,-1.4791,-1.4823,-1.4837,-1.4862,-1.4943,-1.4958,-1.4902,-1.502,-1.5035,-1.508,-1.5079,-1.5101,-1.5105,-1.52,-1.5199,-1.5198,-1.5134,0,0,0,0,0,0,-1.4582,-1.4602,-1.461,-1.4691,-1.4715,-1.4784,-1.4823,-1.4839,-1.487,-1.4877,-1.4957,-1.4971,-1.5021,-1.5072,-1.5085,-1.5086,-1.5109,-1.52,-1.5199,-1.5199,-1.5136,-1.5131,-1.5126,0,0,0,0,0,-1.4575,-1.4587,-1.461,-1.4626,-1.4726,-1.4784,-1.4797,-1.4855,-1.487,-1.4879,-1.4931,-1.4968,-1.5076,-1.5076,-1.5091,-1.5094,-1.52,-1.5199,-1.5199,-1.5138,-1.5132,-1.5127,0,0,0,0,0,0,-1.4504,-1.4598,-1.4625,-1.4663,-1.4715,-1.4797,-1.4811,-1.4846,-1.4895,-1.4899,-1.4968,-1.4986,-1.5024,-1.5064,-1.5061,-1.5119,-1.5143,-1.5145,-1.5092,-1.5086,-1.5081,-1.5071,-1.5113,0,0,0,0,0,-1.4492,-1.453,-1.4611,-1.4637,-1.4661,-1.4731,-1.4758,-1.4798,-1.4855,-1.4877,-1.4932,-1.4986,-1.5033,-1.5062,-1.5109,-1.5142,-1.5161,-1.5152,-1.5147,-1.5143,-1.5144,-1.5165,-1.5162,-1.5195,-1.5195,-1.5196,0,0,-1.4469,-1.4525,-1.4545,-1.4624,-1.4668,-1.4707,-1.4749,-1.4788,-1.4817,-1.4883,-1.4929,-1.4971,-1.5036,-1.5075,-1.5096,-1.511,-1.5139,-1.5141,-1.5137,-1.5141,-1.5164,-1.516,-1.5157,-1.5195,-1.5195,-1.5195,0,0,-1.4446,-1.4492,-1.4519,-1.4563,-1.463,-1.4676,-1.4682,-1.476,-1.479,-1.4837,-1.4887,-1.4923,-1.5002,-1.5046,-1.5079,-1.5073,-1.5109,-1.5086,-1.506,-1.508,-1.5078,-1.5076,-1.5074,-1.5072,-1.5087,-1.5087,-1.5087,0,-1.4409,-1.4468,-1.4528,-1.4564,-1.4598,-1.4658,-1.4686,-1.4726,-1.4805,-1.4827,-1.4841,-1.4941,-1.4989,-1.5039,-1.5038,-1.5062,-1.5072,-1.5077,-1.5073,-1.5072,-1.5071,-1.507,-1.5069,-1.5083,-1.5084,-1.5084,-1.5084,0,-1.442,-1.446,-1.4473,-1.4547,-1.4582,-1.4614,-1.4679,-1.4707,-1.4744,-1.4789,-1.4836,-1.4896,-1.4956,-1.4971,-1.5007,-1.5027,-1.5034,-1.5059,-1.5085,-1.5063,-1.5063,-1.5064,-1.5079,-1.508,-1.5081,-1.5082,0,0,-1.4356,-1.4462,-1.4466,-1.45,-1.4579,-1.4611,-1.4646,-1.4704,-1.4727,-1.478,-1.4811,-1.4875,-1.49,-1.4937,-1.4979,-1.4996,-1.4988,-1.502,-1.5023,-1.5012,-1.5014,-1.4994,-1.4992,-1.5012,-1.5013,-1.5013,-1.5008,0,-1.4345,-1.4409,-1.4464,-1.4508,-1.4547,-1.4605,-1.4635,-1.4686,-1.4729,-1.4769,-1.4817,-1.4862,-1.489,-1.4913,-1.4933,-1.4984,-1.4989,-1.4986,-1.5043,-1.5044,-1.5025,-1.4993,-1.4972,-1.4965,-1.5009,-1.5009,-1.5009,0,-1.4341,-1.439,-1.4437,-1.4512,-1.453,-1.4556,-1.4614,-1.465,-1.471,-1.4741,-1.4782,-1.4825,-1.4865,-1.4886,-1.4943,-1.4939,-1.4966,-1.4995,-1.4996,-1.5003,-1.5025,-1.5,-1.4964,-1.4963,-1.501,-1.501,-1.501,0,-1.429,-1.4368,-1.4407,-1.4434,-1.4522,-1.4539,-1.4576,-1.4636,-1.4668,-1.4719,-1.474,-1.4795,-1.4825,-1.4867,-1.4925,-1.4935,-1.4975,-1.5001,-1.5002,-1.5001,-1.5008,-1.5007,-1.4976,-1.5025,-1.5025,-1.5025,-1.5025,0,-1.4272,-1.4299,-1.4385,-1.4409,-1.4441,-1.4504,-1.4534,-1.4577,-1.463,-1.4664,-1.4718,-1.4748,-1.4822,-1.4862,-1.4908,-1.4948,-1.4961,-1.4987,-1.4999,-1.4982,-1.4979,-1.5001,-1.5003,-1.5025,-1.5025,-1.5025,-1.5025,0,-1.4221,-1.4279,-1.4325,-1.4404,-1.4424,-1.4444,-1.4512,-1.4538,-1.4584,-1.4626,-1.4639,-1.4712,-1.4761,-1.4823,-1.4892,-1.4923,-1.4958,-1.4976,-1.4938,-1.4945,-1.4942,-1.4942,-1.4925,-1.4927,-1.4973,-1.4972,-1.4972,0,-1.4205,-1.4227,-1.4308,-1.4334,-1.4369,-1.4411,-1.4443,-1.4506,-1.4538,-1.4607,-1.4625,-1.4678,-1.4724,-1.4801,-1.486,-1.4914,-1.4934,-1.4924,-1.4942,-1.4925,-1.4934,-1.4932,-1.4935,-1.4919,-1.4919,-1.4918,-1.4917,0,-1.4172,-1.42,-1.4244,-1.4298,-1.4335,-1.438,-1.4429,-1.4447,-1.452,-1.4553,-1.4604,-1.464,-1.471,-1.4763,-1.4824,-1.4864,-1.4903,-1.4911,-1.4914,-1.4898,-1.4875,-1.4888,-1.4925,-1.4911,-1.4912,-1.4912,-1.4913,-1.4913,-1.4139,-1.4161,-1.4222,-1.4269,-1.4311,-1.4355,-1.4383,-1.4432,-1.4475,-1.4537,-1.4572,-1.4622,-1.4682,-1.4768,-1.4806,-1.4846,-1.4861,-1.4865,-1.4866,-1.4867,-1.4862,-1.4868,-1.4858,-1.4858,-1.4858,-1.4858,-1.4859,0,-1.4109,-1.4151,-1.4193,-1.4259,-1.4296,-1.4328,-1.4383,-1.4413,-1.4455,-1.4507,-1.4551,-1.461,-1.4661,-1.4724,-1.478,-1.4801,-1.482,-1.4813,-1.4813,-1.4821,-1.4845,-1.4837,-1.4797,-1.4797,-1.4797,-1.4797,-1.4797,-1.4797,-1.4098,-1.4138,-1.4172,-1.4233,-1.4275,-1.4324,-1.4352,-1.4393,-1.4435,-1.4498,-1.454,-1.4581,-1.4637,-1.4698,-1.4746,-1.4764,-1.4782,-1.477,-1.4792,-1.4814,-1.4819,-1.4825,-1.4817,-1.4773,-1.4773,-1.4765,-1.4765,-1.4765]},{"header":{"parameterUnit":"m.s-1","parameterCategory":1,"la1":30.2991,"la2":30.254,"lo1":-89.0895,"lo2":-89.0444,"dy":0.0017,"dx":0.0017,"nx":28,"ny":28,"refTime":"2024-05-31T21:00:00:Z","depth":0,"parameterNumber":3,"parameterNumberName":"V-component_of_WINDS"},"data":[0,0,0,0,0,0,0,0,0,0,0,0,0,0,0,0,0,0,0,0,0,0,0,0,0,0,0,0,0,0,0,0,0,0,0,0,0,0,0,0,0,0,0,0,0,0,0,0,0,0,0,0,0,0,0,0,0,0,6.4042,6.4043,0,6.4114,6.4115,6.4116,6.4056,6.4054,6.4051,6.4049,6.4117,6.4121,6.4125,0,0,0,0,0,0,0,0,0,0,0,0,0,6.3848,6.3852,6.4042,6.4043,6.4044,6.4114,6.4115,6.4116,6.4057,6.4054,6.4051,6.4048,6.4116,6.4121,6.4126,0,0,0,0,0,0,0,0,0,0,0,0,0,6.3927,6.3853,6.4042,6.4023,6.4022,6.4114,6.4115,6.4116,6.4057,6.4054,6.405,6.4046,6.4114,6.412,6.4126,6.4239,0,0,6.4145,6.4148,0,0,0,0,0,0,0,0,6.3923,6.3934,6.4025,6.4025,6.4024,6.4073,6.4071,6.4157,6.4058,6.4044,6.4049,6.4045,6.4105,6.4112,6.4133,6.4242,6.4245,6.4146,6.415,6.4152,6.4154,0,0,0,0,0,0,0,6.3917,6.3931,6.407,6.4026,6.4026,6.4009,6.4016,6.4087,6.4094,6.4045,6.4041,6.405,6.4104,6.4127,6.4134,6.4246,6.4146,6.4151,6.4155,6.4157,6.4449,6.4453,0,0,0,0,0,0,6.3915,6.3927,6.4068,6.4073,6.3963,6.4016,6.4024,6.406,6.4093,6.4095,6.4053,6.4047,6.4119,6.4127,6.4136,6.4269,6.4152,6.4158,6.4162,6.4445,6.445,6.4454,0,0,0,0,0,0,6.3911,6.3928,6.4065,6.3999,6.4015,6.4023,6.4065,6.4064,6.4087,6.41,6.41,6.4077,6.4116,6.4128,6.4214,6.4271,6.4161,6.4166,6.444,6.4446,6.4452,6.4536,0,0,0,0,0,0,6.3905,6.3927,6.3971,6.4,6.4019,6.4143,6.4068,6.4068,6.4099,6.4091,6.4122,6.4123,6.4114,6.4205,6.422,6.4277,6.4171,6.4435,6.4443,6.445,6.4528,6.4544,6.4558,0,0,0,0,0,6.3899,6.3991,6.3974,6.3991,6.4075,6.4147,6.4157,6.4147,6.4104,6.4147,6.4155,6.4122,6.4262,6.4214,6.4231,6.4291,6.4431,6.4441,6.4449,6.4522,6.4541,6.4558,0,0,0,0,0,0,6.3966,6.3994,6.3975,6.408,6.4112,6.4137,6.4191,6.4168,6.4211,6.4202,6.4185,6.4192,6.4283,6.4295,6.4241,6.44,6.434,6.4352,6.4389,6.4408,6.4422,6.4417,6.4176,0,0,0,0,0,6.3994,6.4052,6.4073,6.4163,6.418,6.4183,6.4214,6.4204,6.4235,6.4247,6.4261,6.4291,6.4342,6.4376,6.4423,6.453,6.4535,6.4579,6.4594,6.4606,6.4617,6.4673,6.4693,6.4484,6.4484,6.4484,0,0,6.4051,6.4073,6.4111,6.4177,6.4201,6.4259,6.4195,6.426,6.4303,6.4256,6.4339,6.435,6.4382,6.4479,6.4523,6.4492,6.4676,6.4618,6.4628,6.4632,6.4684,6.4704,6.4722,6.449,6.4489,6.4488,0,0,6.4184,6.4208,6.4285,6.431,6.4346,6.4348,6.4366,6.4395,6.4401,6.4484,6.445,6.45,6.4588,6.4612,6.4636,6.4778,6.4749,6.4794,6.4871,6.4926,6.4942,6.4957,6.5006,6.5024,6.4805,6.4805,6.4805,0,6.4249,6.4338,6.4327,6.4395,6.4425,6.4387,6.4464,6.4488,6.4538,6.4558,6.4524,6.4634,6.4653,6.4754,6.4789,6.481,6.4829,6.479,6.4941,6.4956,6.4969,6.5016,6.5034,6.481,6.481,6.4809,6.4809,0,6.4416,6.4478,6.4536,6.4586,6.4622,6.4694,6.4692,6.473,6.4716,6.472,6.4804,6.4826,6.4877,6.49,6.4887,6.4999,6.4979,6.4944,6.4882,6.4994,6.5038,6.5056,6.4818,6.4816,6.4814,6.4813,0,0,6.4593,6.4637,6.4658,6.468,6.4717,6.4764,6.4834,6.4885,6.4917,6.4952,6.5008,6.5084,6.5051,6.5078,6.5067,6.5116,6.5225,6.5074,6.5074,6.51,6.5348,6.5374,6.5395,6.5206,6.521,6.5212,6.5345,0,6.4726,6.485,6.4842,6.4956,6.5012,6.4978,6.5038,6.5067,6.5073,6.512,6.5125,6.5179,6.5132,6.5148,6.5195,6.5202,6.5274,6.5192,6.5257,6.5259,6.5248,6.5418,6.5445,6.557,6.5362,6.5365,6.5367,0,6.4899,6.4942,6.5063,6.5091,6.5114,6.5169,6.5214,6.5261,6.5291,6.5292,6.5323,6.5303,6.5371,6.5309,6.5402,6.5346,6.5372,6.538,6.5384,6.5388,6.5319,6.5425,6.5609,6.5627,6.5394,6.5392,6.539,0,6.5014,6.5102,6.5185,6.5205,6.5241,6.528,6.5296,6.5323,6.5354,6.5394,6.5413,6.546,6.5485,6.552,6.5513,6.5469,6.5607,6.5545,6.5608,6.5608,6.5637,6.5635,6.5827,6.5657,6.5656,6.5656,6.5656,0,6.5163,6.5238,6.5237,6.5288,6.5371,6.536,6.5441,6.5453,6.5478,6.5529,6.5501,6.555,6.5538,6.5586,6.558,6.5657,6.5669,6.567,6.5667,6.5672,6.5671,6.5687,6.5678,6.5661,6.566,6.5659,6.5658,0,6.5305,6.5308,6.5396,6.5423,6.5432,6.5491,6.5513,6.556,6.5564,6.5629,6.5644,6.5649,6.5704,6.5701,6.5762,6.5758,6.5852,6.584,6.5842,6.5839,6.5902,6.5896,6.6109,6.6136,6.595,6.5952,6.5953,0,6.54,6.5457,6.549,6.5523,6.5543,6.5596,6.5628,6.562,6.5653,6.5693,6.5735,6.5787,6.5828,6.5917,6.5925,6.5971,6.5959,6.6031,6.5966,6.5968,6.5958,6.5955,6.596,6.6043,6.6045,6.6047,6.6048,0,6.5566,6.5565,6.5613,6.5662,6.5701,6.5738,6.5772,6.58,6.5795,6.5834,6.5891,6.5923,6.5986,6.6037,6.6082,6.6096,6.6071,6.6069,6.6086,6.609,6.6088,6.6089,6.5876,6.6064,6.6062,6.6061,6.606,6.6059,6.5687,6.5735,6.5766,6.582,6.5845,6.5878,6.5923,6.5934,6.5981,6.6033,6.6024,6.6087,6.6115,6.6172,6.6191,6.6238,6.6212,6.6237,6.6243,6.6249,6.6255,6.6082,6.6246,6.6246,6.6245,6.6245,6.6245,0,6.5851,6.5869,6.5919,6.5968,6.601,6.5985,6.6021,6.6058,6.6114,6.6143,6.6184,6.6248,6.6298,6.6311,6.6358,6.6394,6.6383,6.6406,6.6403,6.6406,6.6276,6.6257,6.6414,6.6414,6.6414,6.6414,6.6414,6.6414,6.5941,6.6022,6.6024,6.6116,6.6133,6.6196,6.6218,6.6247,6.627,6.6344,6.6386,6.6394,6.6416,6.6465,6.6509,6.6511,6.6529,6.6557,6.6554,6.6432,6.6415,6.6399,6.638,6.6561,6.6561,6.668,6.6681,6.6681]}]]